Regional Weather Roundup
Issued by NWS

Home | Current Version | Previous Version | Text Only | Print | Product List | Glossary On
Versions: 1 2 3 4 5 6 7 8 9 10 11 12 13 14 15 16 17 18 19 20 21 22 23 24 25 26 27 28
000
ASUS42 KTBW 272316
RWRFL
FLORIDA REGIONAL WEATHER ROUNDUP
NATIONAL WEATHER SERVICE TAMPA BAY RUSKIN FL
600 PM EST MON FEB 27 2017

NOTE: "FAIR" INDICATES FEW OR NO CLOUDS BELOW 12,000 FEET WITH NO
SIGNIFICANT WEATHER AND/OR OBSTRUCTIONS TO VISIBILITY.

FLZ001>010-012>015-112-114-115-280000-
PANHANDLE FLORIDA

CITY           SKY/WX    TMP DP  RH WIND       PRES   REMARKS
PENSACOLA      CLOUDY    61  54  77 N15       30.20R
PENSACOLA NAS  CLOUDY    72  68  87 CALM      30.18R
MILTON NAS     LGT RAIN  55  53  93 N8        30.22
CRESTVIEW      RAIN      55  53  93 NW8       30.25R FOG
DUKE FIELD     CLOUDY    63  55  75 N14       30.21R
VALPARAISO     MOCLDY    69  65  87 SE7       30.18R
MARY ESTHER    PTCLDY    70  64  83 SE10      30.17
PANAMA CITY    CLOUDY    71  66  84 S8        30.19R
TYNDALL AFB    CLOUDY    71  66  83 SE9       30.19R
APALACHICOLA   CLOUDY    70  67  90 E5        30.19S

STATION/POSITION SKY/WX   TEMP    WIND        PRES    WAVE   SWELL
                          AIR SEA DIR/SP/G            HT/PER HT/PER
                          (F)     (DEG/KT/KT) (MB)    (FT/S) (FT/S)
30.1N   87.6W              70 69   60/  4/  4 1021.5R   5/ 7   5/ 7
28.8N   86.0W              73 72              1021.1R   5/ 7   3/ 7
PANAMA CITY BEAC           69     130/ 11/ 12 1022.3R
TOWER C                    68     120/  6/  7 1022.8R
28.5N   84.5W              71 70  160/  8/ 10 1021.8R   3/ 6   3/ 6

$$
FLZ011-016>038-118-127-128-134-139-239-280000-
NORTH FLORIDA

CITY           SKY/WX    TMP DP  RH WIND       PRES   REMARKS
MARIANNA       CLOUDY    74  64  71 S5        30.18R
TALLAHASSEE    MOCLDY    74  65  73 S6        30.20R
PERRY          CLEAR     76  65  67 SW8       30.21R
CROSS CITY     CLEAR     79  63  57 SW10      30.19S
LAKE CITY      MOCLDY    81  57  44 W9        30.20R
GAINESVILLE    CLOUDY    82  59  45 S3        30.18S
WILLISTON      CLEAR     84  57  39 SW6       30.18S
PALATKA        FAIR      79  66  65 SE9       30.20R
MAYPORT NAS    MOCLDY    71  66  84 SE9       30.22R
JACKSONVILLE   MOCLDY    74  65  73 SE12      30.20S
JAX NAS        PTCLDY    75  65  70 SE10      30.20S
FERNANDINA BEA MOCLDY    73  66  78 E7        30.21S
ST AUGUSTINE   CLEAR     73  66  78 SE15      30.22S

STATION/POSITION SKY/WX   TEMP    WIND        PRES    WAVE   SWELL
                          AIR SEA DIR/SP/G            HT/PER HT/PER
                          (F)     (DEG/KT/KT) (MB)    (FT/S) (FT/S)
SHELL POINT      NOT AVBL
KEATON BEACH               70     160/  2/  2 1022.5R
CEDAR KEY                  73     270/  6/  7 1022.9R
FERNANDINA                 72 69  100/  5/ 11 1024.1R
30.7N   81.3W                 65                N/A     4/ 6
MAYPORT                    71 68  120/  6/ 10 1023.6R
31.4N   80.9W              66 64   80/  8/  8 1024.1F   5/ 6   5/ 6
ST AUGUSTINE               70 69  150/ 13/ 14 1023.9S

$$
FLZ040-043>046-052-053-057-058-063-144-280000-
INTERIOR CENTRAL FLORIDA

CITY           SKY/WX    TMP DP  RH WIND       PRES   REMARKS
OCALA          PTCLDY    81  61  50 S5        30.19R
THE VILLAGES     N/A     81  64  57 CALM      30.09R
LEESBURG       CLEAR     80  62  54 E6        30.19R
SANFORD        CLEAR     77  60  55 SE13      30.20R
ORLANDO EXEC   PTCLDY    78  62  57 E12       30.20R
ORLANDO INTL   PTCLDY    79  63  57 E12       30.20R
KISSIMMEE      MOCLDY    80  63  55 SE7       30.20R
WINTER HAVEN   CLEAR     83  57  41 SE10      30.19R
LAKELAND       PTCLDY    82  61  47 S6        30.19R
BARTOW         FAIR      81  57  44 SE7       30.19R
OKEECHOBEE     CLEAR     79  61  53 SE7       30.20S

$$
FLZ041-047-054-059-064-141-147-280000-
EAST CENTRAL FLORIDA

CITY           SKY/WX    TMP DP  RH WIND       PRES   REMARKS
ORMOND BEACH   PTCLDY    75  64  69 SE12      30.22R
DAYTONA BEACH  MOCLDY    75  65  70 E8        30.22R
DELAND         PTCLDY    77  63  61 E8        30.21R
NEW SMYRNA BEA PTCLDY    75  66  73 SE14G207  30.22S
JFK SPACE CTR  CLEAR     75  65  72 SE9       30.20S
TITUSVILLE     CLEAR     75  64  69 SE12      30.22R
CAPE CANAVERAL CLEAR     76  67  72 SE14      30.20S
PATRICK AFB    CLEAR     74  69  82 SE13      30.20S
MELBOURNE      CLEAR     75  67  76 SE13      30.21S
VERO BEACH     CLEAR     76  68  76 E12       30.22R
FT PIERCE      CLEAR     77  68  73 SE13      30.21R
STUART         PTCLDY    81  70  69 SE10      30.23

STATION/POSITION SKY/WX   TEMP    WIND        PRES    WAVE   SWELL
                          AIR SEA DIR/SP/G            HT/PER HT/PER
                          (F)     (DEG/KT/KT) (MB)    (FT/S) (FT/S)
TRIDENT PIER               73 73  120/  6/ 10 1024.3R
28.4N   80.5W                 72                N/A     3/ 6
27.5N   80.2W                 73                N/A     4/ 7

$$
FLZ050-056-061-142-242-148-248-149-249-151-251-155-255-
160-260-280000-
WEST CENTRAL FLORIDA

CITY           SKY/WX    TMP DP  RH WIND       PRES   REMARKS
CRYSTAL RIVER  FAIR      73  63  68 W9        30.21R
INVERNESS      FAIR      77  64  65 W6        30.20R
BROOKSVILLE    MOCLDY    76  65  68 W12       30.21R
CLEARWATER AIR FAIR      77  63  61 W5        30.19R
ST PETE CLEARW PTCLDY    78  62  57 SW14      30.19R
TAMPA INTL     PTCLDY    78  65  63 W8        30.19R
TAMPA EXEC     CLEAR     82  64  54 SW6       30.18R
PLANT CITY     CLEAR     84  61  45 SE3       30.20R
MACDILL AFB    PTCLDY    78  67  69 SW9       30.19R
PETER O KNIGHT PTCLDY    81  64  57 W5        30.19R
ST PETERSBURG  PTCLDY    77  63  61 W8        30.17R
SARASOTA       CLEAR     76  64  66 SW8       30.17R
VENICE         FAIR      77  68  73 S9        30.18R

STATION/POSITION SKY/WX   TEMP    WIND        PRES    WAVE   SWELL
                          AIR SEA DIR/SP/G            HT/PER HT/PER
                          (F)     (DEG/KT/KT) (MB)    (FT/S) (FT/S)
27.3N   84.2W                 73                N/A     3/ 6
CLEARWATER BEACH           75     230/  2/  2 1022.6R
MIDDLE TAMPA BAY           73     270/  7/  9 1022.2R
VENICE                     74 72  200/  7/  7 1021.4R

$$
FLZ066-069-070-075>078-162-262-165-265-280000-
SOUTHWEST FLORIDA AND KEYS

CITY           SKY/WX    TMP DP  RH WIND       PRES   REMARKS
PUNTA GORDA    CLEAR     78  65  63 SW8       30.19R
FT MYERS       PTCLDY    81  65  58 SW8       30.17R
SOUTHWEST INTL PTCLDY    80  65  59 VRB5      30.17R
NAPLES         PTCLDY    79  69  71 SW9       30.16R
MARCO ISLAND   CLEAR     81  66  61 S3        30.17R
MARATHON       CLEAR     80  73  79 E8        30.15R
KEY WEST NAS   PTCLDY    78  72  81 E15       30.14R
KEY WEST INTL  CLEAR     79  73  82 E12       30.14R

STATION/POSITION SKY/WX   TEMP    WIND        PRES    WAVE   SWELL
                          AIR SEA DIR/SP/G            HT/PER HT/PER
                          (F)     (DEG/KT/KT) (MB)    (FT/S) (FT/S)
NAPLES                        75              1021.4R
26.0N   85.6W              76 75  100/  8/ 10 1020.9R   6/ 7   5/ 7
DRY TORTUGAS               76     100/  9/ 10 1020.5R
SAND KEY                   77     110/ 14/ 17 1020.9R
LONG KEY                   78 78   90/ 11/ 14 1021.5R

$$
FLZ067-068-071>074-168-172>174-280000-
SOUTHEAST FLORIDA

CITY           SKY/WX    TMP DP  RH WIND       PRES   REMARKS
W PALM BEACH   MOCLDY    78  67  68 SE14      30.21R
BOCA RATON     PTCLDY    77  70  78 SE12      30.20R
FT LAUDER-EXEC PTCLDY    79  68  69 E15       30.19R
FT LAUDERDALE  MOCLDY    78  70  76 E14       30.19R
POMPANO BEACH  PTCLDY    78  70  76 E13       30.20R
PEMBROKE PINES PTCLDY    78  69  73 E10       30.20R
OPA LOCKA      PTCLDY    78  69  73 E13       30.19S
MIAMI          PTCLDY    77  70  79 E14       30.19R
WEST KENDALL   MOCLDY    78  70  76 E15       30.18R
HOMESTEAD      PTCLDY    78  75  91 E8        30.17R

STATION/POSITION SKY/WX   TEMP    WIND        PRES    WAVE   SWELL
                          AIR SEA DIR/SP/G            HT/PER HT/PER
                          (F)     (DEG/KT/KT) (MB)    (FT/S) (FT/S)
PORT EVERGLADES            77      90/  7/ 12 1022.2R
VIRGINIA KEY               77     100/  8/ 11 1022.6R
FOWEY ROCKS                77 77   90/ 14/ 15 1022.7R
SETTLEMENT POINT           76     120/ 12/ 14 1023.3R

$$





USA.gov is the U.S. government's official web portal to all federal, state and local government web resources and services.